DW8785 Weather Reports


time (UTC)temp
C
wind
direction
speed
KPH
gust
KPH
rain 1hr
cm
rain 24hr
cm
rain mn
cm
humidity
%
barometer
mb
20260510024537 13 0 19.3 0.0 0.00 0.00 0.03 81 1011.0
20260510023032 15 352 17.7 0.0 0.00 0.00 0.00 68 1010.6
20260510021528 15 277 12.9 0.0 0.00 0.00 0.00 66 1010.6
20260510020024 16 359 6.4 0.0 0.00 0.00 0.00 65 1010.7
20260510014521 16 359 8.0 0.0 0.00 0.00 0.00 64 1010.8
20260510013015 16 340 9.7 0.0 0.00 0.00 0.00 64 1010.9
20260510011511 16 263 9.7 0.0 0.00 0.00 0.00 64 1010.9
20260510010006 15 357 6.4 0.0 0.00 0.00 0.00 64 1011.4
20260510004501 15 357 9.7 0.0 0.00 0.00 0.00 65 1011.4
20260510003100 15 359 4.8 0.0 0.00 0.00 0.00 66 1011.4
20260510001553 15 357 3.2 0.0 0.00 0.00 0.00 67 1011.6
20260510000051 15 349 0.0 0.0 0.00 0.00 0.00 67 1011.8
20260509234544 15 158 0.0 0.0 0.00 0.00 0.00 69 1011.7
20260509233039 15 158 0.0 0.0 0.00 0.00 0.00 71 1011.9
20260509231540 15 158 0.0 0.0 0.00 0.00 0.00 69 1011.7
20260509230031 15 155 0.0 0.0 0.00 0.00 0.00 71 1011.9
20260509224525 15 155 0.0 0.0 0.00 0.00 0.00 70 1011.9
20260509223021 15 155 0.0 0.0 0.00 0.00 0.00 72 1011.9
20260509221517 15 154 0.0 0.0 0.00 0.00 0.00 73 1011.9
20260509220023 15 151 0.0 0.0 0.00 0.00 0.00 72 1012.0
20260509214509 15 157 0.0 0.0 0.00 0.00 0.00 74 1012.2
20260509213005 15 157 0.0 0.0 0.00 0.00 0.00 74 1012.2
20260509211600 15 157 0.0 0.0 0.00 0.00 0.00 75 1012.2
20260509210106 15 155 0.0 0.0 0.00 0.00 0.00 75 1012.6
20260509204552 15 154 0.0 0.0 0.00 0.00 0.00 75 1012.7
20260509203047 15 154 0.0 0.0 0.00 0.00 0.00 76 1012.8
20260509201544 15 151 0.0 0.0 0.00 0.00 0.00 77 1012.8
20260509200039 15 147 0.0 0.0 0.00 0.00 0.00 76 1013.0
20260509194536 15 147 0.0 0.0 0.00 0.00 0.00 75 1013.0
20260509193039 15 141 4.8 0.0 0.00 0.00 0.00 76 1012.8
20260509191534 15 117 6.4 0.0 0.00 0.00 0.00 75 1012.5
20260509190026 15 113 4.8 0.0 0.00 0.00 0.00 75 1012.3
20260509184519 15 109 4.8 0.0 0.00 0.00 0.00 75 1012.2
20260509183016 15 113 6.4 0.0 0.00 0.00 0.00 74 1012.1
20260509181512 15 112 4.8 0.0 0.00 0.00 0.00 75 1012.0
20260509180009 15 97 4.8 0.0 0.00 0.00 0.00 74 1012.2
20260509174503 15 127 1.6 0.0 0.00 0.00 0.00 70 1012.0
20260509173059 16 128 1.6 0.0 0.00 0.00 0.00 69 1012.0
20260509171555 16 110 0.0 0.0 0.00 0.00 0.00 66 1011.9
20260509170053 16 106 3.2 0.0 0.00 0.00 0.00 63 1011.8
20260509164546 16 96 3.2 0.0 0.00 0.00 0.00 61 1011.9
20260509163041 17 93 1.6 0.0 0.00 0.00 0.00 59 1012.1
20260509161537 17 85 1.6 0.0 0.00 0.00 0.00 60 1012.2
20260509160037 17 104 1.6 0.0 0.00 0.00 0.00 57 1012.4
20260509154529 17 64 3.2 0.0 0.00 0.00 0.00 58 1012.6
20260509153032 16 73 0.0 0.0 0.00 0.00 0.00 59 1012.7
20260509151521 16 73 1.6 0.0 0.00 0.00 0.00 60 1012.8
20260509150015 16 85 3.2 0.0 0.00 0.00 0.00 60 1012.8
20260509144511 17 76 4.8 0.0 0.00 0.00 0.00 58 1012.9
20260509143007 16 88 1.6 0.0 0.00 0.00 0.00 60 1013.1
20260509141502 17 80 3.2 0.0 0.00 0.00 0.00 59 1013.1
20260509140106 17 64 3.2 0.0 0.00 0.00 0.00 58 1013.1
20260509134554 17 73 3.2 0.0 0.00 0.00 0.00 55 1013.1
20260509133050 17 34 4.8 0.0 0.00 0.00 0.00 57 1013.3
20260509131546 17 79 6.4 0.0 0.00 0.00 0.00 54 1013.4
20260509130041 17 35 6.4 0.0 0.00 0.00 0.00 55 1013.4
20260509124536 17 45 4.8 0.0 0.00 0.00 0.00 57 1013.7
20260509123033 17 55 4.8 0.0 0.00 0.00 0.00 54 1013.6
20260509121527 17 42 4.8 0.0 0.00 0.00 0.00 52 1013.6
20260509120026 17 69 6.4 0.0 0.00 0.00 0.00 50 1013.8
20260509114518 17 21 4.8 0.0 0.00 0.00 0.00 53 1013.6
20260509113013 17 55 4.8 0.0 0.00 0.00 0.00 55 1014.0
20260509111510 17 79 4.8 0.0 0.00 0.00 0.00 53 1014.0
20260509110006 17 45 6.4 0.0 0.00 0.00 0.00 55 1013.9
20260509104601 16 85 6.4 0.0 0.00 0.00 0.00 56 1014.1
20260509103102 17 41 1.6 0.0 0.00 0.00 0.00 54 1014.3
20260509101558 16 41 4.8 0.0 0.00 0.00 0.00 53 1014.3
20260509100052 16 92 4.8 0.0 0.00 0.00 0.00 54 1014.3
20260509094543 16 66 3.2 0.0 0.00 0.00 0.00 53 1014.3
20260509093039 16 51 3.2 0.0 0.00 0.00 0.00 54 1014.4
20260509091536 16 58 3.2 0.0 0.00 0.00 0.00 55 1014.4
20260509090032 16 20 3.2 0.0 0.00 0.00 0.00 56 1014.5
20260509084529 15 41 1.6 0.0 0.00 0.00 0.00 57 1014.5
20260509083021 15 71 1.6 0.0 0.00 0.00 0.00 58 1014.7
20260509081517 15 55 1.6 0.0 0.00 0.00 0.00 60 1014.8
20260509080013 15 71 1.6 0.0 0.00 0.00 0.00 59 1014.8
20260509074509 15 38 1.6 0.0 0.00 0.00 0.00 64 1015.0
20260509073015 15 23 1.6 0.0 0.00 0.00 0.00 57 1015.1
20260509071602 15 344 0.0 0.0 0.00 0.00 0.00 56 1015.1
20260509070059 14 344 0.0 0.0 0.00 0.00 0.00 54 1015.0
20260509064551 14 346 0.0 0.0 0.00 0.00 0.00 50 1015.1
20260509063047 13 346 0.0 0.0 0.00 0.00 0.00 48 1015.1
20260509061542 13 346 0.0 0.0 0.00 0.00 0.00 52 1014.9
20260509060047 13 346 0.0 0.0 0.00 0.00 0.00 51 1015.0
20260509054534 13 346 0.0 0.0 0.00 0.00 0.00 50 1015.1
20260509053033 13 346 0.0 0.0 0.00 0.00 0.00 50 1015.1
20260509051526 12 346 0.0 0.0 0.00 0.00 0.00 53 1015.0
20260509050021 12 346 0.0 0.0 0.00 0.00 0.00 56 1014.9
20260509044523 12 346 0.0 0.0 0.00 0.00 0.00 56 1014.8
20260509043022 12 346 0.0 0.0 0.00 0.00 0.00 57 1014.7
20260509041509 12 350 0.0 0.0 0.00 0.00 0.00 56 1014.6
20260509040005 12 350 0.0 0.0 0.00 0.00 0.00 53 1014.6
20260509034604 12 350 0.0 0.0 0.00 0.00 0.00 55 1014.5
20260509033056 12 350 0.0 0.0 0.00 0.00 0.00 54 1014.5
20260509031553 12 350 0.0 0.0 0.00 0.00 0.00 56 1014.5
20260509030049 12 350 1.6 0.0 0.00 0.00 0.00 57 1014.3